Time,TemperatureF,DewpointF,PressureIn,WindDirection,WindDirectionDegrees,WindSpeedMPH,WindSpeedGustMPH,Humidity,HourlyPrecipIn,Conditions,Clouds,dailyrainin,SolarRadiationWatts/m^2,SoftwareType,DateUTC
2013-02-03 00:01:00,27.0,25.0,30.37,NE,54,7.0,8.0,91,-99.99,,,-99.99,-0.100000,,2013-02-03 07:01:00,
2013-02-03 00:11:00,27.0,25.0,30.37,NNE,26,7.0,10.0,91,-99.99,,,-99.99,0.000000,,2013-02-03 07:11:00,
2013-02-03 00:21:00,28.0,25.0,30.37,NNE,33,6.0,9.0,91,-99.99,,,-99.99,0.000000,,2013-02-03 07:21:00,
2013-02-03 00:31:00,28.0,25.0,30.37,NNE,26,7.0,10.0,90,-99.99,,,-99.99,-0.100000,,2013-02-03 07:31:00,
2013-02-03 00:41:00,28.0,25.0,30.37,NNE,32,6.0,9.0,90,-99.99,,,-99.99,0.000000,,2013-02-03 07:41:00,
2013-02-03 00:52:00,28.0,25.0,30.36,NE,38,9.0,11.0,89,-99.99,,,-99.99,-0.100000,,2013-02-03 07:52:00,
2013-02-03 01:01:00,28.0,25.0,30.36,NE,54,7.0,9.0,89,-99.99,,,-99.99,-0.100000,,2013-02-03 08:01:00,
2013-02-03 01:11:00,28.0,25.0,30.36,NNE,32,8.0,10.0,88,-99.99,,,-99.99,0.100000,,2013-02-03 08:11:00,
2013-02-03 01:22:00,27.0,24.0,30.35,NE,54,8.0,11.0,88,-99.99,,,-99.99,0.000000,,2013-02-03 08:22:00,
2013-02-03 01:32:00,27.0,24.0,30.35,ENE,67,7.0,9.0,88,-99.99,,,-99.99,0.000000,,2013-02-03 08:32:00,
2013-02-03 01:41:00,27.0,24.0,30.34,ENE,68,7.0,10.0,89,-99.99,,,-99.99,-0.200000,,2013-02-03 08:41:00,
2013-02-03 01:51:00,26.0,24.0,30.34,NE,50,7.0,9.0,89,-99.99,,,-99.99,0.000000,,2013-02-03 08:51:00,
2013-02-03 02:02:00,26.0,24.0,30.34,NE,46,6.0,8.0,90,-99.99,,,-99.99,-0.200000,,2013-02-03 09:02:00,
2013-02-03 02:11:00,26.0,24.0,30.33,ENE,63,7.0,9.0,91,-99.99,,,-99.99,-0.100000,,2013-02-03 09:11:00,
2013-02-03 02:21:00,26.0,24.0,30.33,ENE,60,7.0,9.0,91,-99.99,,,-99.99,0.000000,,2013-02-03 09:21:00,
2013-02-03 02:31:00,26.0,24.0,30.33,ENE,62,6.0,8.0,91,-99.99,,,-99.99,-0.100000,,2013-02-03 09:31:00,
2013-02-03 02:41:00,26.0,23.0,30.33,NE,54,6.0,8.0,92,-99.99,,,-99.99,-0.300000,,2013-02-03 09:41:00,
2013-02-03 02:51:00,26.0,24.0,30.33,ENE,57,6.0,9.0,92,-99.99,,,-99.99,0.000000,,2013-02-03 09:51:00,
2013-02-03 03:01:00,26.0,24.0,30.33,NE,38,6.0,8.0,92,-99.99,,,-99.99,0.100000,,2013-02-03 10:01:00,
2013-02-03 03:11:00,26.0,24.0,30.32,NE,35,6.0,7.0,92,-99.99,,,-99.99,0.000000,,2013-02-03 10:11:00,
2013-02-03 03:21:00,25.0,23.0,30.32,ENE,58,7.0,9.0,92,-99.99,,,-99.99,-0.100000,,2013-02-03 10:21:00,
2013-02-03 03:31:00,25.0,23.0,30.31,NE,38,7.0,9.0,92,-99.99,,,-99.99,0.000000,,2013-02-03 10:31:00,
2013-02-03 03:41:00,25.0,23.0,30.31,NNE,24,7.0,10.0,92,-99.99,,,-99.99,0.000000,,2013-02-03 10:41:00,
2013-02-03 03:52:00,25.0,23.0,30.30,NNE,31,8.0,10.0,92,-99.99,,,-99.99,0.000000,,2013-02-03 10:52:00,
2013-02-03 04:01:00,24.0,23.0,30.30,NE,43,7.0,11.0,93,-99.99,,,-99.99,-0.100000,,2013-02-03 11:01:00,
2013-02-03 04:11:00,24.0,23.0,30.29,NE,43,7.0,9.0,93,-99.99,,,-99.99,0.000000,,2013-02-03 11:11:00,
2013-02-03 04:21:00,24.0,22.0,30.30,NNE,27,7.0,9.0,93,-99.99,,,-99.99,-0.200000,,2013-02-03 11:21:00,
2013-02-03 04:31:00,24.0,22.0,30.29,NE,52,6.0,9.0,93,-99.99,,,-99.99,-0.100000,,2013-02-03 11:31:00,
2013-02-03 04:41:00,24.0,22.0,30.29,NNE,24,7.0,10.0,93,-99.99,,,-99.99,-0.100000,,2013-02-03 11:41:00,
2013-02-03 04:52:00,24.0,22.0,30.29,NNE,12,7.0,9.0,92,-99.99,,,-99.99,0.100000,,2013-02-03 11:52:00,
2013-02-03 05:02:00,23.0,21.0,30.30,NNE,14,8.0,10.0,92,-99.99,,,-99.99,-0.100000,,2013-02-03 12:02:00,
2013-02-03 05:11:00,23.0,21.0,30.29,North,8,8.0,10.0,92,-99.99,,,-99.99,-0.100000,,2013-02-03 12:11:00,
2013-02-03 05:21:00,23.0,21.0,30.29,NNE,18,6.0,8.0,92,-99.99,,,-99.99,-0.100000,,2013-02-03 12:21:00,
2013-02-03 05:32:00,23.0,21.0,30.29,NNE,20,6.0,9.0,92,-99.99,,,-99.99,-0.100000,,2013-02-03 12:32:00,
2013-02-03 05:42:00,23.0,21.0,30.29,NNE,20,6.0,7.0,92,-99.99,,,-99.99,0.000000,,2013-02-03 12:42:00,
2013-02-03 05:52:00,23.0,21.0,30.28,NNE,16,6.0,8.0,92,-99.99,,,-99.99,0.000000,,2013-02-03 12:52:00,
2013-02-03 06:02:00,22.0,20.0,30.28,NNE,14,5.0,6.0,92,-99.99,,,-99.99,-0.100000,,2013-02-03 13:02:00,
2013-02-03 06:11:00,22.0,20.0,30.28,NE,47,6.0,8.0,92,-99.99,,,-99.99,0.000000,,2013-02-03 13:11:00,
2013-02-03 06:21:00,22.0,20.0,30.27,NE,39,5.0,7.0,92,-99.99,,,-99.99,-0.100000,,2013-02-03 13:21:00,
2013-02-03 06:32:00,22.0,20.0,30.27,NNE,30,5.0,7.0,92,-99.99,,,-99.99,0.000000,,2013-02-03 13:32:00,
2013-02-03 06:41:00,22.0,20.0,30.26,ENE,57,5.0,7.0,92,-99.99,,,-99.99,-0.100000,,2013-02-03 13:41:00,
2013-02-03 06:52:00,22.0,20.0,30.26,NE,50,6.0,7.0,91,-99.99,,,-99.99,-0.100000,,2013-02-03 13:52:00,
2013-02-03 07:02:00,22.0,20.0,30.26,NE,54,5.0,6.0,91,-99.99,,,-99.99,0.000000,,2013-02-03 14:02:00,
2013-02-03 07:11:00,22.0,19.0,30.25,NNE,26,4.0,6.0,91,-99.99,,,-99.99,0.000000,,2013-02-03 14:11:00,
2013-02-03 07:21:00,22.0,19.0,30.25,NNE,25,4.0,6.0,91,-99.99,,,-99.99,-0.100000,,2013-02-03 14:21:00,
2013-02-03 07:31:00,21.0,19.0,30.25,NNE,21,4.0,6.0,91,-99.99,,,-99.99,-0.100000,,2013-02-03 14:31:00,
2013-02-03 07:41:00,21.0,19.0,30.25,NNE,19,4.0,5.0,91,-99.99,,,-99.99,0.100000,,2013-02-03 14:41:00,
2013-02-03 07:52:00,21.0,19.0,30.25,NE,37,3.0,5.0,91,-99.99,,,-99.99,0.600000,,2013-02-03 14:52:00,
2013-02-03 08:02:00,22.0,19.0,30.24,ENE,57,4.0,4.0,91,-99.99,,,-99.99,1.800000,,2013-02-03 15:02:00,
2013-02-03 08:11:00,22.0,19.0,30.24,NE,46,4.0,6.0,91,-99.99,,,-99.99,6.800000,,2013-02-03 15:11:00,
2013-02-03 08:21:00,22.0,19.0,30.24,NE,49,5.0,6.0,91,-99.99,,,-99.99,14.500000,,2013-02-03 15:21:00,
2013-02-03 08:32:00,22.0,20.0,30.25,NE,53,6.0,7.0,91,-99.99,,,-99.99,24.400000,,2013-02-03 15:32:00,
2013-02-03 08:41:00,22.0,20.0,30.26,NNE,19,6.0,7.0,92,-99.99,,,-99.99,29.299999,,2013-02-03 15:41:00,
2013-02-03 08:51:00,22.0,20.0,30.26,NNE,28,6.0,8.0,91,-99.99,,,-99.99,44.200001,,2013-02-03 15:51:00,
2013-02-03 09:02:00,21.0,19.0,30.26,NE,34,7.0,8.0,91,-99.99,,,-99.99,45.700001,,2013-02-03 16:02:00,
2013-02-03 09:11:00,21.0,19.0,30.26,NE,46,5.0,7.0,91,-99.99,,,-99.99,55.799999,,2013-02-03 16:11:00,
2013-02-03 09:21:00,21.0,19.0,30.25,ENE,72,4.0,6.0,91,-99.99,,,-99.99,66.900002,,2013-02-03 16:21:00,
2013-02-03 09:32:00,22.0,19.0,30.25,East,80,5.0,7.0,91,-99.99,,,-99.99,108.099998,,2013-02-03 16:32:00,
2013-02-03 09:52:00,22.0,20.0,30.23,East,88,3.0,5.0,91,-99.99,,,-99.99,148.800003,,2013-02-03 16:52:00,
2013-02-03 10:02:00,22.0,19.0,30.24,NNE,26,3.0,5.0,91,-99.99,,,-99.99,158.699997,,2013-02-03 17:02:00,
2013-02-03 10:11:00,22.0,19.0,30.24,North,8,4.0,5.0,91,-99.99,,,-99.99,203.000000,,2013-02-03 17:11:00,
2013-02-03 10:21:00,21.0,19.0,30.24,NW,306,2.0,3.0,91,-99.99,,,-99.99,251.699997,,2013-02-03 17:21:00,
2013-02-03 10:31:00,22.0,19.0,30.24,NW,307,4.0,5.0,91,-99.99,,,-99.99,188.300003,,2013-02-03 17:31:00,
2013-02-03 10:41:00,21.0,19.0,30.25,NNW,338,5.0,6.0,91,-99.99,,,-99.99,244.500000,,2013-02-03 17:41:00,
2013-02-03 10:52:00,21.0,19.0,30.24,North,10,3.0,4.0,91,-99.99,,,-99.99,268.100006,,2013-02-03 17:52:00,
2013-02-03 11:02:00,22.0,20.0,30.25,North,358,4.0,5.0,91,-99.99,,,-99.99,207.300003,,2013-02-03 18:02:00,
2013-02-03 11:11:00,22.0,20.0,30.25,NNW,342,4.0,7.0,91,-99.99,,,-99.99,354.700012,,2013-02-03 18:11:00,
2013-02-03 11:22:00,22.0,20.0,30.26,NNW,346,4.0,5.0,92,-99.99,,,-99.99,225.899994,,2013-02-03 18:22:00,
2013-02-03 11:32:00,22.0,20.0,30.27,North,351,3.0,5.0,92,-99.99,,,-99.99,268.399994,,2013-02-03 18:32:00,
2013-02-03 11:41:00,22.0,20.0,30.27,NW,306,3.0,4.0,92,-99.99,,,-99.99,262.899994,,2013-02-03 18:41:00,
2013-02-03 11:51:00,22.0,20.0,30.27,West,276,2.0,3.0,92,-99.99,,,-99.99,341.399994,,2013-02-03 18:51:00,
2013-02-03 12:01:00,22.0,20.0,30.25,SSE,160,3.0,4.0,92,-99.99,,,-99.99,402.200012,,2013-02-03 19:01:00,
2013-02-03 12:11:00,24.0,22.0,30.24,SSE,159,5.0,8.0,92,-99.99,,,-99.99,334.399994,,2013-02-03 19:11:00,
2013-02-03 12:21:00,24.0,22.0,30.23,SSE,148,6.0,8.0,92,-99.99,,,-99.99,307.700012,,2013-02-03 19:21:00,
2013-02-03 12:31:00,24.0,22.0,30.23,South,191,4.0,6.0,92,-99.99,,,-99.99,311.500000,,2013-02-03 19:31:00,
2013-02-03 12:41:00,24.0,22.0,30.23,SSW,213,4.0,7.0,92,-99.99,,,-99.99,419.899994,,2013-02-03 19:41:00,
2013-02-03 12:51:00,25.0,23.0,30.22,WNW,282,2.0,4.0,92,-99.99,,,-99.99,383.700012,,2013-02-03 19:51:00,
2013-02-03 13:01:00,25.0,23.0,30.21,SW,227,4.0,6.0,92,-99.99,,,-99.99,561.500000,,2013-02-03 20:01:00,
2013-02-03 13:11:00,25.0,24.0,30.21,SW,225,5.0,7.0,93,-99.99,,,-99.99,443.600006,,2013-02-03 20:11:00,
2013-02-03 13:21:00,26.0,24.0,30.21,West,268,5.0,7.0,93,-99.99,,,-99.99,412.000000,,2013-02-03 20:21:00,
2013-02-03 13:32:00,25.0,23.0,30.21,West,271,4.0,8.0,93,-99.99,,,-99.99,383.000000,,2013-02-03 20:32:00,
2013-02-03 13:41:00,26.0,24.0,30.21,WSW,254,6.0,9.0,93,-99.99,,,-99.99,303.100006,,2013-02-03 20:41:00,
2013-02-03 13:52:00,25.0,23.0,30.20,West,263,5.0,9.0,93,-99.99,,,-99.99,335.000000,,2013-02-03 20:52:00,
2013-02-03 14:02:00,25.0,23.0,30.20,West,274,5.0,8.0,92,-99.99,,,-99.99,255.899994,,2013-02-03 21:02:00,
2013-02-03 14:11:00,25.0,23.0,30.19,West,261,4.0,8.0,92,-99.99,,,-99.99,299.100006,,2013-02-03 21:11:00,
2013-02-03 14:21:00,25.0,23.0,30.20,West,269,4.0,6.0,92,-99.99,,,-99.99,247.000000,,2013-02-03 21:21:00,
2013-02-03 14:32:00,25.0,23.0,30.19,West,269,5.0,8.0,92,-99.99,,,-99.99,262.600006,,2013-02-03 21:32:00,
2013-02-03 14:42:00,25.0,23.0,30.20,SW,229,3.0,6.0,91,-99.99,,,-99.99,248.399994,,2013-02-03 21:42:00,
2013-02-03 14:51:00,26.0,24.0,30.20,SW,215,5.0,7.0,91,-99.99,,,-99.99,237.199997,,2013-02-03 21:51:00,
2013-02-03 15:01:00,26.0,24.0,30.19,SW,225,5.0,7.0,88,-99.99,,,-99.99,232.100006,,2013-02-03 22:01:00,
2013-02-03 15:11:00,27.0,23.0,30.18,South,182,4.0,6.0,87,-99.99,,,-99.99,276.600006,,2013-02-03 22:11:00,
2013-02-03 15:21:00,27.0,24.0,30.18,WSW,243,4.0,7.0,86,-99.99,,,-99.99,260.799988,,2013-02-03 22:21:00,
2013-02-03 15:31:00,27.0,23.0,30.20,West,270,2.0,4.0,85,-99.99,,,-99.99,161.699997,,2013-02-03 22:31:00,
2013-02-03 15:41:00,27.0,23.0,30.20,WNW,301,2.0,3.0,86,-99.99,,,-99.99,237.600006,,2013-02-03 22:41:00,
2013-02-03 15:51:00,27.0,23.0,30.20,NNE,20,3.0,4.0,84,-99.99,,,-99.99,195.399994,,2013-02-03 22:51:00,
2013-02-03 16:01:00,27.0,23.0,30.20,NW,316,3.0,5.0,84,-99.99,,,-99.99,243.300003,,2013-02-03 23:01:00,
2013-02-03 16:11:00,27.0,23.0,30.19,West,268,4.0,5.0,83,-99.99,,,-99.99,149.899994,,2013-02-03 23:11:00,
2013-02-03 16:21:00,27.0,23.0,30.20,WSW,243,4.0,5.0,83,-99.99,,,-99.99,135.800003,,2013-02-03 23:21:00,
2013-02-03 16:32:00,27.0,23.0,30.20,West,264,2.0,6.0,83,-99.99,,,-99.99,128.800003,,2013-02-03 23:32:00,
2013-02-03 16:41:00,27.0,23.0,30.19,West,259,2.0,3.0,83,-99.99,,,-99.99,134.100006,,2013-02-03 23:41:00,
2013-02-03 16:52:00,27.0,23.0,30.19,WSW,237,4.0,8.0,83,-99.99,,,-99.99,99.199997,,2013-02-03 23:52:00,
2013-02-03 17:01:00,28.0,23.0,30.19,SSE,152,4.0,5.0,84,-99.99,,,-99.99,69.199997,,2013-02-04 00:01:00,
2013-02-03 17:11:00,28.0,24.0,30.19,SE,144,4.0,5.0,83,-99.99,,,-99.99,74.400002,,2013-02-04 00:11:00,
2013-02-03 17:21:00,28.0,24.0,30.19,SE,141,4.0,4.0,84,-99.99,,,-99.99,53.099998,,2013-02-04 00:21:00,
2013-02-03 17:31:00,28.0,24.0,30.18,SE,137,4.0,5.0,84,-99.99,,,-99.99,26.500000,,2013-02-04 00:31:00,
2013-02-03 17:41:00,28.0,24.0,30.18,SE,139,4.0,6.0,84,-99.99,,,-99.99,17.700001,,2013-02-04 00:41:00,
2013-02-03 17:51:00,28.0,24.0,30.18,SE,143,3.0,4.0,85,-99.99,,,-99.99,12.000000,,2013-02-04 00:51:00,
2013-02-03 18:01:00,28.0,24.0,30.19,ESE,107,3.0,4.0,84,-99.99,,,-99.99,4.100000,,2013-02-04 01:01:00,
2013-02-03 18:11:00,28.0,24.0,30.19,ESE,102,2.0,3.0,84,-99.99,,,-99.99,1.700000,,2013-02-04 01:11:00,
2013-02-03 18:21:00,28.0,24.0,30.20,ENE,60,2.0,3.0,84,-99.99,,,-99.99,0.200000,,2013-02-04 01:21:00,
2013-02-03 18:31:00,28.0,24.0,30.20,East,100,3.0,4.0,84,-99.99,,,-99.99,0.000000,,2013-02-04 01:31:00,
2013-02-03 18:41:00,28.0,24.0,30.20,ESE,119,3.0,4.0,84,-99.99,,,-99.99,-0.100000,,2013-02-04 01:41:00,
2013-02-03 18:51:00,28.0,24.0,30.20,ESE,112,4.0,5.0,84,-99.99,,,-99.99,0.000000,,2013-02-04 01:51:00,
2013-02-03 19:01:00,28.0,24.0,30.19,SE,138,5.0,6.0,84,-99.99,,,-99.99,-0.200000,,2013-02-04 02:01:00,
2013-02-03 19:11:00,29.0,24.0,30.19,SE,126,5.0,5.0,84,-99.99,,,-99.99,-0.100000,,2013-02-04 02:11:00,
2013-02-03 19:21:00,29.0,24.0,30.19,ESE,114,4.0,5.0,84,-99.99,,,-99.99,0.000000,,2013-02-04 02:21:00,
2013-02-03 19:31:00,29.0,25.0,30.18,SE,136,4.0,5.0,84,-99.99,,,-99.99,-0.100000,,2013-02-04 02:31:00,
2013-02-03 19:41:00,29.0,25.0,30.18,SE,137,3.0,4.0,84,-99.99,,,-99.99,-0.100000,,2013-02-04 02:41:00,
2013-02-03 19:51:00,29.0,25.0,30.18,SSE,148,4.0,5.0,85,-99.99,,,-99.99,0.000000,,2013-02-04 02:51:00,
2013-02-03 20:01:00,29.0,25.0,30.18,SSE,149,5.0,7.0,85,-99.99,,,-99.99,0.000000,,2013-02-04 03:01:00,
2013-02-03 20:11:00,29.0,25.0,30.19,SSE,160,4.0,5.0,85,-99.99,,,-99.99,0.000000,,2013-02-04 03:11:00,
2013-02-03 20:21:00,29.0,25.0,30.19,SSE,153,5.0,6.0,85,-99.99,,,-99.99,-0.200000,,2013-02-04 03:21:00,
2013-02-03 20:31:00,29.0,25.0,30.20,SE,134,4.0,5.0,85,-99.99,,,-99.99,0.000000,,2013-02-04 03:31:00,
2013-02-03 20:41:00,29.0,25.0,30.21,SW,224,1.0,2.0,85,-99.99,,,-99.99,-0.100000,,2013-02-04 03:41:00,
2013-02-03 20:51:00,29.0,25.0,30.21,NW,313,1.0,1.0,85,-99.99,,,-99.99,-0.100000,,2013-02-04 03:51:00,
2013-02-03 21:01:00,29.0,26.0,30.21,ESE,120,3.0,4.0,85,-99.99,,,-99.99,-0.100000,,2013-02-04 04:01:00,
2013-02-03 21:11:00,29.0,26.0,30.20,South,173,3.0,5.0,85,-99.99,,,-99.99,-0.100000,,2013-02-04 04:11:00,
2013-02-03 21:21:00,29.0,26.0,30.20,SSW,200,6.0,10.0,85,-99.99,,,-99.99,-0.100000,,2013-02-04 04:21:00,
2013-02-03 21:31:00,29.0,26.0,30.19,SSW,199,10.0,14.0,87,-99.99,,,-99.99,0.100000,,2013-02-04 04:31:00,
2013-02-03 21:41:00,29.0,26.0,30.19,South,188,9.0,13.0,88,-99.99,,,-99.99,0.000000,,2013-02-04 04:41:00,
2013-02-03 21:52:00,29.0,26.0,30.19,SSW,200,10.0,15.0,88,-99.99,,,-99.99,0.000000,,2013-02-04 04:52:00,
2013-02-03 22:03:00,29.0,26.0,30.19,SSW,212,8.0,12.0,89,-99.99,,,-99.99,-0.100000,,2013-02-04 05:03:00,
2013-02-03 22:11:00,29.0,26.0,30.19,SSW,211,6.0,8.0,89,-99.99,,,-99.99,0.000000,,2013-02-04 05:11:00,
2013-02-03 22:21:00,29.0,26.0,30.19,South,189,6.0,9.0,88,-99.99,,,-99.99,-0.100000,,2013-02-04 05:21:00,
2013-02-03 22:33:00,29.0,26.0,30.20,SSW,197,8.0,11.0,88,-99.99,,,-99.99,-0.100000,,2013-02-04 05:33:00,
2013-02-03 22:41:00,29.0,26.0,30.19,SSW,203,6.0,9.0,87,-99.99,,,-99.99,-0.100000,,2013-02-04 05:41:00,
2013-02-03 22:51:00,29.0,26.0,30.19,SSW,207,7.0,11.0,88,-99.99,,,-99.99,0.000000,,2013-02-04 05:51:00,
2013-02-03 23:01:00,29.0,26.0,30.19,SSW,201,6.0,9.0,88,-99.99,,,-99.99,-0.100000,,2013-02-04 06:01:00,
2013-02-03 23:11:00,29.0,26.0,30.18,SSW,207,5.0,8.0,88,-99.99,,,-99.99,-0.100000,,2013-02-04 06:11:00,
2013-02-03 23:21:00,29.0,26.0,30.18,SSW,205,6.0,9.0,88,-99.99,,,-99.99,-0.100000,,2013-02-04 06:21:00,
2013-02-03 23:31:00,29.0,27.0,30.19,SSW,204,7.0,11.0,88,-99.99,,,-99.99,-0.100000,,2013-02-04 06:31:00,
2013-02-03 23:41:00,30.0,27.0,30.18,SSW,199,7.0,11.0,88,-99.99,,,-99.99,0.000000,,2013-02-04 06:41:00,
2013-02-03 23:51:00,30.0,26.0,30.18,SSW,205,7.0,10.0,87,-99.99,,,-99.99,0.000000,,2013-02-04 06:51:00,